TimeMST,TemperatureF,Dew PointF,Humidity,Sea Level PressureIn,VisibilityMPH,Wind Direction,Wind SpeedMPH,Gust SpeedMPH,PrecipitationIn,Events,Conditions,WindDirDegrees,DateUTC
12:53 AM,24.1,23.0,96,29.86,4.0,ENE,3.5,-,N/A,,Overcast,70,2014-02-04 07:53:00
1:53 AM,24.1,23.0,96,29.86,4.0,Calm,Calm,-,N/A,,Overcast,0,2014-02-04 08:53:00
2:08 AM,24.1,23.0,96,29.79,4.0,Calm,Calm,-,N/A,,Overcast,0,2014-02-04 09:08:00
2:46 AM,24.1,23.0,96,29.79,3.0,Calm,Calm,-,N/A,,Overcast,0,2014-02-04 09:46:00
2:53 AM,24.1,24.1,100,29.85,3.0,Calm,Calm,-,N/A,,Overcast,0,2014-02-04 09:53:00
3:22 AM,21.9,21.0,96,29.78,2.0,Calm,Calm,-,N/A,,Overcast,0,2014-02-04 10:22:00
3:29 AM,24.1,23.0,96,29.78,1.8,Calm,Calm,-,N/A,,Overcast,0,2014-02-04 10:29:00
3:48 AM,21.2,21.2,100,29.78,2.5,Calm,Calm,-,0.00,Snow,Light Snow,0,2014-02-04 10:48:00
3:53 AM,21.9,21.9,100,29.85,2.0,Calm,Calm,-,0.00,Snow,Light Snow,0,2014-02-04 10:53:00
4:23 AM,24.1,23.0,96,29.78,2.0,Calm,Calm,-,0.00,Snow,Light Snow,0,2014-02-04 11:23:00
4:32 AM,21.9,21.9,100,29.78,2.0,Calm,Calm,-,0.00,Snow,Light Snow,0,2014-02-04 11:32:00
4:44 AM,23.0,21.9,96,29.78,1.5,Calm,Calm,-,0.00,Snow,Light Snow,0,2014-02-04 11:44:00
4:53 AM,24.1,23.0,96,29.86,1.0,Calm,Calm,-,0.00,Snow,Light Snow,0,2014-02-04 11:53:00
5:41 AM,24.1,23.0,96,29.78,0.5,Calm,Calm,-,0.02,Fog-Snow,Snow,0,2014-02-04 12:41:00
5:48 AM,24.8,24.8,100,29.78,0.5,Calm,Calm,-,0.03,Fog-Snow,Snow,0,2014-02-04 12:48:00
5:53 AM,25.0,24.1,96,29.85,0.5,Calm,Calm,-,0.04,Fog-Snow,Snow,0,2014-02-04 12:53:00
5:56 AM,25.0,24.1,96,29.78,0.2,Calm,Calm,-,0.00,Fog-Snow,Heavy Snow,0,2014-02-04 12:56:00
6:05 AM,25.0,24.1,96,29.78,0.8,Calm,Calm,-,0.02,Snow,Light Snow,0,2014-02-04 13:05:00
6:13 AM,25.0,24.1,96,29.78,1.5,Calm,Calm,-,0.02,Snow,Light Snow,0,2014-02-04 13:13:00
6:20 AM,25.0,24.1,96,29.79,1.5,Calm,Calm,-,0.02,Snow,Light Snow,0,2014-02-04 13:20:00
6:35 AM,24.1,23.0,96,29.78,1.5,Calm,Calm,-,0.02,Snow,Light Snow,0,2014-02-04 13:35:00
6:42 AM,24.1,24.1,100,29.79,1.5,Calm,Calm,-,0.02,Snow,Light Snow,0,2014-02-04 13:42:00
6:48 AM,24.8,24.8,100,29.79,1.5,West,3.5,-,0.02,Snow,Light Snow,280,2014-02-04 13:48:00
6:53 AM,25.0,23.0,92,29.86,1.5,Calm,Calm,-,0.02,Snow,Light Snow,0,2014-02-04 13:53:00
7:13 AM,24.1,24.1,100,29.80,0.5,Calm,Calm,-,0.00,Fog-Snow,Snow,0,2014-02-04 14:13:00
7:23 AM,25.0,24.1,96,29.79,0.1,Calm,Calm,-,0.03,Fog-Snow,Heavy Snow,0,2014-02-04 14:23:00
7:37 AM,25.0,23.0,92,29.80,0.8,Calm,Calm,-,0.04,Snow,Light Snow,0,2014-02-04 14:37:00
7:42 AM,25.0,23.0,92,29.80,0.8,Calm,Calm,-,0.04,Snow,Light Snow,0,2014-02-04 14:42:00
7:53 AM,24.1,23.0,96,29.88,0.5,ENE,3.5,-,0.04,Fog-Snow,Snow,70,2014-02-04 14:53:00
8:00 AM,25.0,23.0,92,29.81,0.5,Calm,Calm,-,0.00,Fog-Snow,Snow,0,2014-02-04 15:00:00
8:34 AM,24.1,23.0,96,29.81,1.0,ENE,4.6,-,0.01,Fog-Snow,Light Snow,70,2014-02-04 15:34:00
8:41 AM,24.1,23.0,96,29.81,1.0,ENE,4.6,-,0.01,Fog-Snow,Light Snow,70,2014-02-04 15:41:00
8:53 AM,24.1,23.0,96,29.89,1.2,ENE,3.5,-,0.01,Snow,Light Snow,60,2014-02-04 15:53:00
9:26 AM,25.0,25.0,100,29.82,1.2,Calm,Calm,-,0.00,Snow,Light Snow,0,2014-02-04 16:26:00
9:50 AM,24.8,24.8,100,29.83,1.2,Calm,Calm,-,0.00,Snow,Light Snow,0,2014-02-04 16:50:00
9:53 AM,25.0,24.1,96,29.91,1.2,Calm,Calm,-,0.00,Snow,Light Snow,0,2014-02-04 16:53:00
10:00 AM,27.0,25.0,92,29.83,1.2,Calm,Calm,-,0.00,Snow,Light Snow,0,2014-02-04 17:00:00
10:14 AM,27.0,25.0,92,29.84,1.2,Calm,Calm,-,0.00,Snow,Light Snow,0,2014-02-04 17:14:00
10:39 AM,27.0,25.0,92,29.84,1.2,Calm,Calm,-,0.00,Snow,Light Snow,0,2014-02-04 17:39:00
10:53 AM,26.1,25.0,96,29.93,1.0,Calm,Calm,-,0.00,Snow,Light Snow,0,2014-02-04 17:53:00
11:46 AM,28.9,25.0,85,29.84,2.0,Calm,Calm,-,0.01,,Overcast,0,2014-02-04 18:46:00
11:53 AM,28.0,26.1,92,29.92,2.5,Calm,Calm,-,0.01,,Overcast,0,2014-02-04 18:53:00
12:01 PM,28.9,25.0,85,29.84,3.0,Calm,Calm,-,N/A,,Overcast,0,2014-02-04 19:01:00
12:17 PM,28.9,26.1,89,29.84,5.0,Calm,Calm,-,N/A,,Overcast,0,2014-02-04 19:17:00
12:53 PM,30.0,26.1,85,29.89,5.0,Calm,Calm,-,N/A,,Overcast,0,2014-02-04 19:53:00
1:10 PM,28.9,25.0,85,29.83,10.0,NNW,5.8,-,N/A,,Overcast,330,2014-02-04 20:10:00
1:41 PM,33.1,25.0,72,29.82,10.0,Calm,Calm,-,N/A,,Mostly Cloudy,0,2014-02-04 20:41:00
1:53 PM,30.9,25.0,79,29.88,10.0,North,5.8,-,N/A,,Mostly Cloudy,360,2014-02-04 20:53:00
2:53 PM,30.9,25.0,79,29.89,10.0,Calm,Calm,-,N/A,,Overcast,0,2014-02-04 21:53:00
3:53 PM,28.9,21.0,72,29.93,10.0,West,3.5,-,0.00,,Mostly Cloudy,270,2014-02-04 22:53:00
4:53 PM,28.9,19.9,69,29.95,10.0,Calm,Calm,-,N/A,,Mostly Cloudy,0,2014-02-04 23:53:00
5:53 PM,25.0,21.9,88,30.01,10.0,NW,15.0,-,0.00,,Overcast,320,2014-02-05 00:53:00
6:30 PM,25.0,23.0,92,29.95,2.5,Variable,3.5,-,0.00,Snow,Light Snow,0,2014-02-05 01:30:00
6:40 PM,25.0,21.9,88,29.95,5.0,NW,4.6,-,0.00,Snow,Light Snow,320,2014-02-05 01:40:00
6:53 PM,25.0,23.0,92,30.05,9.0,West,4.6,-,0.00,,Overcast,270,2014-02-05 01:53:00
7:53 PM,23.0,21.0,92,30.08,10.0,East,5.8,-,0.00,,Overcast,80,2014-02-05 02:53:00
8:38 PM,23.0,19.9,88,30.00,2.5,ESE,9.2,-,0.00,Snow,Light Snow,120,2014-02-05 03:38:00
8:53 PM,23.0,19.9,88,30.10,2.5,SE,9.2,-,0.00,Snow,Light Snow,130,2014-02-05 03:53:00
8:55 PM,23.0,19.9,88,30.01,4.0,SE,8.1,-,0.00,Snow,Light Snow,130,2014-02-05 03:55:00
9:53 PM,19.9,18.0,92,30.13,9.0,SE,5.8,-,0.00,,Overcast,140,2014-02-05 04:53:00
10:53 PM,14.0,7.0,74,30.17,10.0,NE,9.2,-,N/A,,Scattered Clouds,40,2014-02-05 05:53:00
11:53 PM,16.0,7.0,68,30.18,10.0,SE,6.9,-,N/A,,Clear,140,2014-02-05 06:53:00